CELESTIS-02 1 25160U 98007D 12039.23872677 -.00000003 00000-0 56724-4 0 8356 2 25160 107.9649 224.8280 0061381 116.0352 244.7117 14.20980303725667 CELESTIS-03 1 26034U 99070C 12038.80709880 .00002700 00000-0 33988-3 0 3722 2 26034 98.2740 102.5475 0018967 129.1332 231.1569 14.82802979653217 AMC-14 1 32708U 08011A 12036.99790705 .00000152 00000-0 10000-3 0 8898 2 32708 15.2286 97.1367 0046087 355.7323 76.4183 1.00278248 15571